Theta_e
303 303 303 303 304 304 304 303 303 302 302 301 302 302 302 302 302 296 296 297 291 286 287 289 289 285 285 285 282 284 283 283 282 278 276 276 274 278 277 279 278 277 274 273 277 277 275 286 286 282 286 288 289 289
304 305 304 304 303 304 303 303 302 301 300 300 301 302 302 302 302 300 289 296 296 287 285 290 291 292 290 290 286 285 283 284 285 277 275 275 277 273 275 272 281 275 280 278 280 278 285 285 287 290 290 288 286 286
305 305 304 304 303 303 303 302 301 301 300 300 299 300 300 300 301 299 291 292 290 285 284 283 285 290 292 291 292 283 284 288 286 286 280 279 275 277 271 274 278 281 283 280 280 281 283 286 287 287 286 285 286 287
304 304 304 304 303 303 303 302 301 301 300 300 300 299 299 299 299 299 291 293 294 288 279 280 289 286 289 289 290 290 288 289 286 284 280 279 277 283 275 279 277 280 281 279 280 283 284 284 285 285 286 287 287 289
302 303 304 304 303 303 302 302 301 301 300 300 299 299 299 299 299 296 292 293 294 287 280 280 286 288 289 288 287 289 288 286 282 282 277 276 283 283 281 280 278 281 279 276 276 282 282 283 285 287 286 287 288 286
302 302 303 303 302 302 301 301 301 300 300 300 300 299 299 299 299 292 284 292 295 295 281 274 283 284 286 285 285 285 285 284 283 279 278 282 284 279 275 273 280 281 282 284 282 285 284 285 286 287 286 286 286 286
301 301 302 302 302 301 301 301 300 300 300 299 299 299 298 298 292 287 285 292 296 291 280 277 275 282 285 283 282 282 283 282 281 281 281 281 281 283 278 275 281 283 284 284 285 285 283 285 284 286 285 285 287 285
300 301 301 301 301 301 300 300 300 299 299 299 298 298 298 298 295 288 291 297 295 286 284 275 273 276 282 278 277 284 281 281 278 278 276 274 279 277 274 279 281 283 284 283 284 287 287 287 285 284 284 284 283 283
300 300 301 301 300 300 299 299 299 299 298 298 298 297 291 288 284 285 296 295 293 285 279 278 274 267 281 279 279 279 280 270 279 274 275 278 274 273 277 279 281 283 283 284 287 286 286 283 284 284 283 283 282 282
300 300 300 300 300 299 299 299 299 298 297 298 291 285 280 285 294 293 289 284 285 282 281 278 278 272 278 277 275 276 275 273 265 275 278 273 274 281 283 283 285 285 285 286 284 283 283 282 282 282 283 284 284 284
299 299 299 300 299 299 299 298 298 297 296 287 281 278 288 294 285 279 269 276 269 276 280 280 277 274 279 273 273 276 270 269 265 271 271 268 275 278 283 284 285 285 286 286 287 286 285 284 283 283 283 284 285 285
299 299 299 299 299 299 298 298 298 291 287 288 286 289 285 281 276 275 266 269 276 271 276 275 276 277 278 280 271 271 267 265 262 270 266 262 272 280 281 282 283 285 283 283 286 285 284 284 284 284 284 285 284 284
298 299 299 298 299 299 298 298 297 296 293 287 281 280 274 272 271 271 261 266 265 274 275 273 273 275 276 277 268 265 263 266 271 261 266 269 277 278 277 280 283 285 285 284 284 285 284 284 285 284 283 284 283 283
298 298 299 299 299 299 298 298 297 295 287 278 277 272 272 260 268 269 270 271 276 275 275 273 273 273 275 272 270 266 271 269 264 261 264 271 275 277 277 279 279 279 280 280 280 281 282 282 282 283 283 283 282 282
297 297 298 298 297 297 297 298 297 291 283 276 277 270 266 272 271 272 273 275 277 276 275 274 273 274 268 267 270 267 263 261 266 266 271 274 276 277 278 279 278 279 280 280 281 281 281 281 281 281 282 283 283 283
295 295 295 298 297 297 297 297 293 290 283 277 270 268 270 268 265 268 268 272 278 280 276 277 272 271 272 270 264 263 261 260 269 274 276 278 277 278 279 280 280 281 281 281 282 282 282 281 281 281 282 282 283 282
294 288 294 298 297 296 297 290 286 283 277 272 271 273 273 269 271 273 277 278 281 277 272 273 271 269 275 268 261 267 265 273 276 276 278 278 278 279 280 280 281 281 281 281 281 281 281 282 282 281 280 281 282 282
290 292 295 295 295 294 291 286 283 281 274 270 271 271 277 277 275 277 277 279 278 277 275 268 273 272 271 269 266 272 276 278 278 278 279 279 280 280 281 280 281 281 281 281 281 281 280 280 279 280 280 281 281 280
290 292 295 295 294 285 282 282 282 276 271 268 270 272 276 277 279 279 278 279 281 281 275 271 270 267 269 274 275 277 277 277 277 278 279 280 281 281 281 281 281 281 280 280 279 280 281 281 281 281 281 281 280 281
295 295 295 295 290 283 280 280 282 270 268 272 269 269 273 274 277 277 279 280 279 272 267 268 270 275 276 278 279 279 279 279 279 277 278 280 281 281 281 281 281 281 281 281 281 283 281 281 281 281 281 281 280 280
290 289 294 290 285 284 281 279 278 275 268 270 266 273 270 268 270 270 275 279 269 270 270 275 277 279 281 281 281 281 280 280 279 279 278 278 281 281 281 281 281 281 280 280 280 280 282 281 282 282 282 282 282 282
285 293 286 287 282 281 280 281 277 276 272 266 268 269 265 265 268 268 271 265 267 276 277 278 278 279 279 279 280 281 281 281 281 281 283 282 279 279 280 280 280 280 280 280 280 280 281 282 283 283 283 282 284 283
291 288 284 283 278 277 276 280 274 273 270 270 271 268 267 267 267 268 263 268 273 277 277 278 279 280 279 280 280 280 281 280 279 280 280 281 281 281 281 281 282 281 280 281 282 282 282 284 283 283 283 283 282 282
290 281 278 276 275 273 277 270 270 269 268 268 267 263 267 266 262 259 262 268 277 278 277 278 278 277 278 277 278 279 280 281 281 281 282 281 280 280 282 282 282 282 282 282 282 281 282 282 283 282 282 281 281 280
277 276 276 272 273 268 263 266 266 270 264 264 263 259 261 260 259 257 264 273 276 276 277 277 277 277 277 278 279 280 282 282 280 279 281 282 281 280 280 280 280 280 281 280 279 280 280 281 281 281 281 281 280 280
270 272 271 272 266 267 267 264 267 266 262 258 261 260 257 258 258 263 267 270 268 271 273 273 275 277 278 279 279 280 281 281 281 279 279 280 278 276 274 274 274 276 280 281 280 279 279 279 279 279 280 280 282 280
265 271 273 276 274 273 270 270 270 264 258 260 259 259 258 259 260 267 271 271 271 272 273 277 278 278 279 280 281 281 281 281 279 278 278 278 278 278 277 275 274 277 280 279 279 278 277 277 277 278 278 279 279 279
268 268 268 269 267 266 264 262 260 262 263 266 265 259 260 263 267 272 272 272 272 272 274 277 276 276 275 274 277 277 277 277 276 276 275 276 277 278 278 278 279 280 279 278 278 279 279 279 279 279 279 278 278 278
267 269 271 269 265 264 263 265 265 268 271 269 266 264 266 270 271 273 279 276 269 268 272 274 273 271 273 274 275 276 276 274 271 268 268 270 271 273 276 276 276 277 277 278 281 282 281 282 282 282 282 281 280 273
269 268 264 259 263 266 268 270 267 267 269 270 269 270 273 276 279 276 274 274 275 272 268 267 266 266 269 270 270 271 273 273 273 271 269 269 270 273 274 275 275 277 278 279 279 279 282 282 281 278 279 282 281 281
271 265 262 263 264 265 267 263 261 265 262 262 261 268 274 272 273 269 266 266 265 264 265 268 270 270 268 270 269 268 268 272 272 273 273 273 273 273 275 276 277 279 279 278 278 277 278 277 276 278 281 280 277 280
265 266 266 261 264 263 259 261 260 261 259 259 263 260 262 263 264 268 265 263 263 264 269 270 268 269 270 270 271 270 273 271 271 273 273 273 274 275 277 279 279 278 277 277 277 277 276 275 275 279 279 280 280 281
260 258 257 260 262 261 261 262 259 259 257 257 261 262 264 267 267 267 265 262 264 266 268 270 269 269 269 269 269 269 271 271 272 275 275 277 279 279 279 278 277 276 276 276 276 276 274 275 279 277 280 281 283 281
Wind_Speed
8 5 5 5 7 7 7 6 5 4 1 2 2 3 4 6 9 4 1 3 3 1 6 2 2 2 3 2 3 4 5 3 3 1 3 5 4 5 2 4 5 7 6 5 4 5 10 3 5 4 6 7 3 3
10 10 7 6 6 7 8 6 5 4 2 1 2 4 5 5 6 5 2 3 2 2 6 2 7 10 8 5 3 3 5 0 3 2 1 2 3 3 2 5 4 5 7 4 7 8 4 3 4 5 5 3 4 5
10 12 12 12 12 10 9 7 6 5 4 2 2 0 3 4 6 4 0 2 3 2 5 2 4 6 3 7 5 3 3 5 3 2 2 4 6 3 3 8 9 5 5 10 12 3 10 15 17 12 2 2 5 4
11 12 14 13 12 11 11 10 9 7 6 5 3 1 2 2 3 3 1 2 0 2 3 8 3 5 1 3 5 6 5 6 0 2 2 4 3 3 5 8 5 6 3 6 15 16 16 14 12 7 6 6 6 6
12 14 15 14 12 12 11 10 10 8 7 6 4 3 1 1 3 1 2 2 3 3 3 5 9 9 5 3 7 7 6 5 1 2 3 5 3 2 7 6 16 8 13 13 18 19 17 17 8 7 7 7 5 5
12 12 12 14 13 11 11 11 10 9 8 7 5 4 1 2 1 2 3 2 1 1 2 4 5 6 5 3 3 5 5 4 4 4 3 4 5 2 6 9 15 8 8 13 16 11 11 17 7 6 4 6 8 6
14 14 13 15 15 13 12 11 10 9 8 7 5 3 2 1 2 2 3 2 2 3 3 5 6 5 3 2 3 2 1 3 4 4 5 8 10 11 10 17 23 20 17 18 20 20 11 5 9 7 6 8 8 6
17 15 15 15 15 14 13 11 10 9 8 7 6 3 3 2 2 2 2 2 5 3 3 3 6 6 1 1 2 2 2 1 3 4 3 3 2 2 6 15 16 16 17 10 12 2 9 9 6 6 5 6 8 11
20 18 17 16 16 15 15 14 12 11 9 7 5 2 3 2 1 2 3 5 2 3 2 3 3 6 3 2 1 3 2 1 2 4 4 3 3 6 7 10 16 17 10 10 5 11 14 6 8 8 7 9 8 11
21 19 19 18 18 17 16 15 14 13 10 8 3 2 2 2 3 3 2 2 1 2 1 4 2 4 1 1 3 2 0 4 1 5 1 3 5 10 6 14 9 9 11 8 5 7 10 9 8 9 11 10 10 13
21 21 21 20 20 18 17 17 16 14 9 2 2 3 2 1 3 3 1 2 2 2 4 5 6 3 3 3 4 3 4 2 1 7 5 4 2 6 11 8 9 8 7 7 8 10 8 8 10 12 14 13 12 13
22 23 22 22 21 20 20 19 20 7 4 5 5 3 3 3 2 2 2 3 4 5 4 4 6 6 4 3 3 4 4 3 6 1 4 3 6 8 8 9 9 8 8 9 8 8 9 10 12 12 12 15 14 13
20 24 23 24 23 23 22 22 20 15 10 4 3 3 4 3 3 6 7 5 3 4 4 2 3 3 3 1 1 2 1 6 2 3 5 7 10 7 8 6 8 8 12 11 9 9 12 14 14 13 15 15 16 15
16 20 23 25 26 24 24 24 24 16 6 3 6 6 6 4 6 7 6 4 5 2 1 2 2 2 2 1 3 2 6 2 2 1 8 5 9 10 7 6 5 10 9 11 11 12 15 14 15 16 14 13 13 16
15 15 25 24 25 26 25 25 26 5 4 5 5 6 7 6 2 4 4 1 3 3 3 3 3 3 3 2 5 1 5 5 6 7 5 6 7 7 11 11 9 12 14 10 14 15 16 15 15 16 16 14 16 17
9 11 16 24 30 29 27 24 14 3 3 4 2 1 3 3 4 1 2 3 3 2 2 2 4 3 6 4 2 8 4 7 9 8 8 10 13 13 13 14 14 15 14 14 15 16 15 15 16 18 17 16 17 17
7 2 7 28 28 28 29 6 3 6 8 6 5 3 3 2 5 4 5 4 3 4 3 3 4 10 3 4 4 4 7 13 12 9 9 13 15 16 16 16 17 16 16 16 16 15 15 17 15 15 17 19 17 16
2 4 11 20 18 11 10 3 4 6 8 5 4 4 5 3 4 4 3 3 4 4 3 6 3 7 7 5 5 7 11 12 11 12 12 13 16 17 15 17 16 16 16 16 17 16 14 14 14 13 16 16 13 13
6 7 13 15 13 4 4 4 4 6 6 4 2 2 3 3 3 3 4 5 6 4 2 1 6 4 6 7 13 14 11 10 11 13 13 16 16 16 16 16 17 17 16 16 14 12 12 16 14 13 12 11 11 11
11 14 14 16 6 3 4 2 4 5 4 5 2 3 4 4 4 4 7 6 3 3 2 4 6 10 13 14 12 11 11 11 11 13 14 14 13 16 16 15 13 16 14 16 15 21 13 11 11 10 10 10 11 11
4 4 9 7 2 3 1 2 3 4 4 3 2 4 3 3 1 3 5 3 2 5 4 7 12 13 15 12 11 11 13 13 13 13 15 15 14 13 14 14 14 12 13 12 13 14 18 12 11 11 10 10 11 11
4 9 3 3 3 2 2 2 3 2 4 3 2 2 2 1 3 4 2 2 4 8 8 9 11 11 11 14 15 15 16 17 17 15 23 20 14 12 13 12 12 13 12 13 13 13 13 12 11 11 11 10 12 9
14 6 3 2 4 4 2 2 3 1 4 3 2 2 2 2 4 2 1 4 6 6 4 6 10 12 13 17 16 17 17 18 14 14 14 13 14 13 12 12 10 12 12 11 10 11 11 15 12 11 10 12 10 9
13 5 5 5 3 3 2 1 2 3 3 3 4 3 4 4 1 3 4 5 10 6 6 11 8 9 9 10 10 11 12 10 12 12 11 12 12 11 11 12 12 10 11 11 9 10 10 9 15 10 10 10 9 9
7 4 5 4 2 5 3 2 2 3 4 3 2 5 5 3 1 2 5 8 6 8 9 8 6 7 8 10 9 10 11 8 9 12 12 10 11 10 10 9 9 10 9 10 11 10 10 10 9 9 10 10 11 10
5 2 5 5 3 5 6 5 7 5 4 3 7 4 2 4 2 7 6 5 5 5 5 5 6 7 8 8 11 11 10 4 7 10 10 6 7 10 11 11 10 9 6 7 9 11 12 11 10 11 10 11 14 10
4 4 2 0 4 4 3 3 3 5 6 7 4 3 4 2 7 8 4 3 4 4 4 5 5 7 9 10 8 6 6 6 7 9 10 9 9 8 8 9 12 10 10 11 11 11 12 12 11 10 9 8 7 6
4 4 7 4 3 1 6 3 5 7 5 4 5 5 8 10 8 5 6 5 5 4 5 5 4 4 3 3 5 6 7 6 7 9 8 7 7 6 8 7 8 21 14 12 11 11 11 11 10 11 10 8 7 4
1 2 5 4 2 2 5 7 7 5 5 6 7 6 7 6 5 4 7 4 2 0 4 4 4 3 3 3 3 4 6 7 9 13 13 10 10 7 6 9 10 10 10 11 20 19 16 13 11 9 7 5 4 2
5 3 5 3 7 8 7 8 5 4 3 4 3 4 5 7 8 3 3 4 5 3 2 2 3 2 4 6 8 7 4 5 4 4 8 11 10 11 11 11 12 11 11 10 11 12 18 11 9 5 4 2 2 1
5 4 4 3 6 5 5 1 3 2 1 2 1 4 10 6 5 3 2 1 2 2 3 4 5 2 4 7 7 8 8 3 3 9 11 9 11 11 12 12 12 10 9 10 10 10 10 8 6 6 2 4 3 3
2 6 6 4 5 3 3 2 2 3 2 1 5 1 4 3 4 4 2 3 4 4 5 5 4 5 6 6 6 6 14 9 9 9 13 10 10 12 12 10 9 9 10 10 10 9 9 8 5 2 2 3 3 3
3 3 2 3 2 2 3 3 3 5 2 3 5 3 4 5 7 3 3 1 3 3 3 5 4 8 10 9 8 8 10 7 13 21 22 23 23 20 13 8 8 9 10 9 9 8 8 9 6 2 3 3 4 6
Wind_Direction
82 92 133 202 219 206 209 192 183 189 159 63 5 360 11 25 20 46 330 51 105 239 283 311 293 251 333 201 193 293 7 351 37 196 184 247 226 246 289 234 183 193 180 201 211 249 271 77 9 7 273 302 247 256
168 175 184 207 227 231 224 197 178 192 200 140 42 42 47 39 17 40 39 337 83 157 244 265 249 243 216 214 136 228 223 265 244 98 293 292 301 345 110 274 302 263 200 212 197 214 269 34 113 254 263 244 268 269
229 214 211 212 208 219 214 200 203 209 199 188 238 42 64 39 37 65 117 286 59 318 301 355 261 273 222 211 187 184 279 214 250 134 239 239 231 138 243 250 249 269 314 276 289 0 309 315 321 330 194 223 274 250
270 255 231 224 219 223 218 205 203 213 215 202 206 147 88 37 9 31 86 283 168 297 282 283 325 303 248 318 228 202 227 295 55 66 239 244 235 203 237 260 257 229 2 283 278 283 296 288 293 279 293 285 275 277
273 262 242 226 222 214 215 206 203 207 209 209 208 176 188 321 323 354 202 243 193 154 265 279 306 287 277 242 226 222 209 212 153 271 255 255 232 262 260 276 262 261 272 262 269 281 276 284 282 272 276 283 281 296
264 255 242 221 214 205 208 201 198 205 209 209 205 192 192 107 31 54 34 353 336 90 69 307 289 308 307 296 230 245 218 189 173 186 240 243 238 245 254 256 273 265 235 243 265 276 275 290 269 248 258 272 267 256
255 252 241 221 207 200 204 209 207 197 183 178 166 140 145 184 103 154 189 185 55 84 73 304 305 280 274 12 324 320 69 198 174 225 214 242 249 245 259 267 278 276 280 276 277 284 288 305 280 293 278 274 293 273
247 243 236 219 207 204 211 203 190 189 181 172 162 176 228 260 339 305 322 72 127 106 101 264 272 329 188 293 294 234 216 218 253 214 310 229 334 227 257 254 271 271 276 282 273 266 265 259 279 291 278 288 297 291
246 235 227 219 212 209 206 205 200 184 173 162 164 205 28 115 185 215 122 52 93 133 193 225 253 263 340 289 272 299 206 284 273 204 231 138 222 225 260 314 297 300 290 291 301 292 273 284 284 284 281 285 270 279
246 234 227 217 213 207 209 200 193 175 155 157 96 100 291 214 139 94 61 143 120 217 225 248 226 261 87 257 278 304 197 234 248 240 70 176 247 261 310 276 273 267 275 290 284 313 301 275 257 262 267 278 278 282
248 230 229 217 209 202 201 195 180 168 133 109 157 191 231 177 66 41 31 151 261 234 221 238 200 227 249 172 226 196 229 250 197 257 148 260 245 232 246 237 233 245 251 247 220 230 260 256 272 282 283 274 273 280
249 227 226 215 207 200 194 189 177 135 159 176 150 119 52 59 85 151 206 306 214 235 232 191 223 195 256 157 122 284 202 32 247 224 84 270 254 256 290 274 267 259 292 292 261 265 271 263 264 272 273 277 277 291
242 227 219 215 206 197 188 184 172 143 113 61 65 143 114 241 182 201 203 259 205 215 238 230 286 211 344 81 304 62 334 236 23 43 219 224 261 276 278 299 292 281 294 278 277 274 274 279 279 279 284 277 287 290
239 227 220 207 206 194 186 183 171 147 94 136 157 183 189 243 224 196 188 186 224 172 206 164 255 191 221 36 203 180 243 18 303 300 237 250 258 279 293 268 266 284 276 264 261 274 283 285 284 284 279 280 285 281
243 243 211 212 205 185 189 181 168 133 129 167 172 218 212 214 222 207 182 102 270 174 97 3 299 150 253 227 205 38 327 251 208 228 241 251 262 265 285 286 277 287 285 270 289 288 280 279 280 280 278 279 276 279
248 253 229 201 197 183 188 177 163 128 116 154 216 239 249 89 291 283 177 206 225 170 81 80 245 261 235 221 146 218 156 227 257 263 267 283 283 284 285 290 283 284 274 279 280 279 272 273 277 280 283 278 277 279
162 235 258 195 185 180 187 130 132 156 175 196 238 193 148 146 190 203 175 201 167 116 194 182 240 226 293 248 286 209 221 264 271 281 278 281 285 287 286 286 283 279 278 279 280 273 264 271 280 280 278 277 280 280
173 173 173 186 184 173 180 132 157 180 195 217 167 194 182 180 186 217 207 179 144 193 148 211 200 214 242 241 258 257 264 273 279 273 279 280 282 283 284 282 282 282 283 282 276 271 271 275 274 272 273 273 275 272
164 176 181 202 180 124 136 157 157 189 215 189 189 166 170 203 208 204 205 211 211 183 150 224 236 212 228 237 257 262 273 271 280 286 284 285 283 282 281 283 284 283 281 277 272 270 275 273 269 271 273 276 272 273
227 195 186 158 143 113 153 124 98 117 188 211 91 143 174 187 198 218 238 231 178 156 230 214 217 244 249 259 269 274 277 283 284 285 284 284 284 282 278 278 276 277 280 281 278 276 276 275 270 270 268 265 271 269
254 214 196 107 104 141 178 165 156 179 161 163 208 135 215 12 206 217 240 187 125 210 226 225 244 260 264 270 274 276 281 278 276 275 280 284 281 282 280 278 275 275 274 277 280 281 283 278 279 277 272 273 276 280
198 143 100 116 110 150 168 195 158 198 91 156 62 95 131 209 234 235 182 134 222 238 231 252 257 263 270 271 269 272 271 277 277 278 282 283 283 281 279 278 280 279 278 280 279 277 277 278 282 284 284 280 281 271
157 116 120 142 146 165 121 88 90 82 115 147 77 56 279 260 230 12 256 222 244 234 218 243 252 258 251 262 270 273 272 275 277 277 278 279 280 282 284 284 287 291 286 280 281 283 281 283 286 284 277 276 274 271
103 91 131 143 124 125 111 124 95 110 90 132 139 215 236 221 355 58 240 251 257 285 264 258 251 263 276 265 260 264 268 270 277 280 283 297 295 286 285 287 285 279 280 287 284 281 280 278 280 283 280 278 275 273
87 121 128 124 90 107 109 137 129 157 163 164 137 279 255 76 145 249 230 263 268 264 258 260 249 242 251 263 271 275 273 270 286 299 292 287 288 291 296 299 303 300 300 295 293 292 292 289 285 282 280 278 273 271
98 177 128 148 151 138 171 151 180 169 129 170 224 247 52 91 70 247 235 233 232 232 242 237 252 268 268 264 283 297 306 317 302 287 301 313 313 300 297 303 306 302 302 296 300 303 301 299 297 295 291 291 297 305
109 197 224 170 134 118 84 54 73 122 169 196 212 119 87 181 237 246 266 232 224 237 224 239 240 262 275 288 294 300 305 299 284 293 302 296 289 287 288 294 296 299 307 303 298 294 292 291 289 286 284 282 273 270
178 172 161 190 106 154 138 117 146 187 208 205 112 174 189 203 231 230 217 240 217 254 262 265 247 260 284 287 291 300 305 309 300 298 288 274 254 269 281 283 292 300 297 292 293 293 289 285 285 282 277 272 275 256
183 197 108 129 90 117 181 170 202 219 192 159 173 212 229 224 239 260 281 258 249 245 301 315 317 329 289 287 286 298 305 311 318 317 316 311 315 309 317 306 299 297 294 291 296 299 296 296 295 294 282 253 234 236
225 148 103 129 159 209 226 184 213 228 193 186 187 317 287 268 267 252 275 295 302 296 249 251 284 343 310 316 311 312 293 282 286 281 307 310 307 307 307 304 303 300 301 301 305 308 312 317 312 313 294 145 118 136
145 108 89 148 212 231 221 213 6 26 27 230 250 201 256 289 309 27 72 99 121 60 32 346 323 283 300 322 321 317 314 295 296 295 292 296 298 296 298 297 297 299 310 311 310 310 314 322 315 318 81 112 139 128
126 167 152 174 253 279 25 115 213 212 275 187 253 192 338 21 283 277 300 74 48 38 336 331 312 309 304 304 292 273 281 294 298 308 309 305 306 299 298 303 312 316 312 310 311 312 319 318 301 289 119 108 129 137
49 62 59 85 11 340 289 102 1 314 335 274 264 208 205 187 229 254 300 127 150 215 292 315 290 291 299 296 285 294 308 298 309 315 317 320 323 322 326 322 320 317 315 313 312 317 323 326 327 167 145 117 99 114